THOR ABLESTAR DEB, 254

Orbit data source: Space-Track

THOR ABLESTAR DEB, 254 is space debris in LEO originally from a launch on Thu, 29 Jun 1961 UTC launched from the Air Force Eastern Test Range (AFETR). Debris objects in space refer to the collection of defunct objects orbiting the Earth. Examples of debris include non-operational satellites, rocket bodies, and fragments generated from explosions, collisions, or faulty payload assembly.

Loading next visibility...
Identifier
254, 1961-015CF
Orbit
LEO
Country
Flag of USUS
Related business
Manufacturer
Unknown
Mission
Spacecraft
Bus & Motor
Unknown
Mass
Unknown
Launch date (UTC)
1961-06-29 (64 years ago)
Launch vehicle
Unknown
Launch site
Air Force Eastern Test Range (AFETR)
Object type
Payload
Rocket body
Debris
Shape & HBR
Unknown shape, 0.1 m
Radar Cross Section
Small (<0.1 m²)

Expand to show TLE details & history
Last TLE update: 11 hours ago

TLE from 11 hours ago
0 THOR ABLESTAR DEB
1 00254U 61015CF  25291.96639509  .00004704  00000-0  11620-2 0  9997
2 00254  66.7738 211.1043 0069337 262.3098  97.0134 14.51470313338658
Epoch: 2025-10-18T23:11Z
TLE epoch observation values (Epoch: 2025-10-18T23:11:36.535Z)
Latitude
-0.00004°
Longitude
-164.48778°
Altitude
729.331 km
Speed
7.488 km/s
True Right ascension
14h 04m 25s
True Declination
0° 00' 00"
Sunlit
Object was in daylight at epoch
Visualization orbit readout
Latitude
Unknown
Longitude
Unknown
Altitude
Unknown
Speed
Unknown
Apparent Right ascension
Unknown
Apparent Declination
Unknown
Sunlit
N/A
Visualization observer readout
Local Sidereal Time
05:06:32
Azimuth
Unknown
Elevation
Unknown
Doppler factor
Unknown
Orbital elements
Apogee altitude
768.411 km
Perigee altitude
669.989 km
Semi-major axis
7,097.337 km
Eccentricity
0.00693
Inclination
66.7738°
RAAN
211.1043°
Arg. of periapsis
262.3098°
True anomaly
97.80114°
Mean anomaly
97.0134°
Eccentric anomaly
97.40736°
Mean motion
3.62994 °/min
Orbital period
99.18 mins
BSTAR
0.001162

Documentation

Showing up to 5 results
|